Date,TemperatureHighF,TemperatureAvgF,TemperatureLowF,DewpointHighF,DewpointAvgF,DewpointLowF,HumidityHigh,HumidityAvg,HumidityLow,PressureMaxIn,PressureMinIn,WindSpeedMaxMPH,WindSpeedAvgMPH,GustSpeedMaxMPH,PrecipitationSumIn
2013-1-1,35.6,30.5,17.0,26.6,17.1,5.0,74,58,42,29.79,29.56,7,2,15,0.06
2013-1-2,28.1,18.5,9.1,18.7,8.2,-4.2,80,64,54,29.97,29.75,6,2,16,0.00
2013-1-3,26.5,12.6,1.3,10.3,0.4,-5.5,84,60,28,30.00,29.84,3,0,8,0.00
2013-1-4,37.9,26.6,9.9,25.0,18.7,7.6,94,73,56,29.86,29.65,5,1,11,0.02
2013-1-5,42.3,32.4,19.4,25.4,21.1,16.5,89,65,40,30.11,29.68,5,2,9,0.04
2013-1-6,42.0,30.3,19.8,28.9,24.7,16.6,90,81,58,30.08,29.79,5,1,8,0.00
2013-1-7,38.5,29.5,18.7,28.9,22.0,15.8,94,75,46,30.25,29.80,3,0,5,0.00
2013-1-8,45.2,32.0,20.0,28.6,24.7,16.4,93,76,50,30.22,30.10,5,1,8,0.00
2013-1-9,44.1,36.6,21.6,35.1,29.1,20.4,95,75,52,30.24,29.84,5,1,12,0.00
2013-1-10,47.8,40.7,27.9,29.5,25.1,23.0,82,54,41,30.39,29.88,7,2,11,0.00
2013-1-11,38.9,31.7,23.0,35.0,27.2,21.0,96,84,67,30.38,30.08,1,0,2,0.11
2013-1-12,40.8,37.7,35.3,40.3,37.1,34.5,98,98,96,30.07,29.98,1,0,3,0.01
2013-1-13,50.3,43.9,37.1,48.5,43.4,36.6,99,98,93,30.00,29.83,3,0,5,0.00
2013-1-14,61.1,49.8,40.0,51.5,41.9,27.3,97,76,47,30.11,29.70,5,2,7,0.00
2013-1-15,42.3,35.9,29.1,28.2,26.0,24.6,87,68,52,30.17,30.08,2,0,3,0.00
2013-1-16,32.7,31.2,29.0,31.7,29.5,25.9,97,94,82,30.10,29.68,0,0,2,0.08
2013-1-17,41.1,32.7,25.1,34.4,26.9,12.6,98,80,52,29.95,29.68,5,1,6,0.04
2013-1-18,28.0,20.6,15.2,11.8,2.9,-3.1,70,47,29,30.29,29.92,5,1,7,0.00
2013-1-19,48.2,36.0,19.7,31.9,22.1,8.0,74,57,40,30.22,29.73,8,2,16,0.00
2013-1-20,52.5,40.3,27.6,32.8,25.6,10.9,75,57,34,29.78,29.39,9,4,13,0.00
2013-1-21,27.3,23.7,18.4,20.4,10.9,3.7,92,60,43,29.94,29.65,4,1,8,0.00
2013-1-22,24.0,19.0,11.9,19.6,8.7,0.0,93,66,40,29.93,29.61,6,2,11,0.00
2013-1-23,16.0,10.1,5.0,0.3,-6.9,-11.9,66,46,29,29.99,29.91,6,2,12,0.00
2013-1-24,19.2,9.9,0.1,-5.8,-8.8,-11.7,65,44,27,30.08,29.91,6,2,11,0.00
2013-1-25,24.7,15.7,6.1,5.3,-5.9,-10.3,55,38,24,30.15,29.91,5,1,7,0.00
2013-1-26,18.0,17.1,16.4,10.3,9.5,8.2,76,72,65,29.91,29.90,1,0,2,0.00
2013-1-28,29.7,25.8,17.9,24.4,16.8,5.0,94,72,37,30.25,29.87,3,0,6,0.00
2013-1-29,33.2,29.1,24.2,31.2,26.9,22.5,96,92,84,30.04,29.88,1,0,2,0.13
2013-1-30,59.8,45.4,32.1,56.8,44.2,31.1,99,96,89,30.00,29.30,5,2,10,0.21
2013-1-31,61.1,46.7,29.5,58.7,37.4,16.9,96,72,41,29.44,28.81,11,6,18,0.38
2013-2-1,32.6,28.4,23.4,18.7,10.4,4.8,64,47,35,29.89,29.44,6,3,12,0.00
2013-2-4,29.0,24.9,20.4,15.5,8.2,5.7,74,49,39,29.78,29.61,11,4,12,0.00
2013-2-5,30.9,24.3,19.7,21.7,12.7,6.4,88,62,47,29.88,29.78,3,1,4,0.00
2013-2-6,37.6,29.0,21.1,25.5,18.1,4.9,95,67,38,30.14,29.77,5,2,9,0.01
2013-2-7,30.6,21.0,12.2,8.0,-1.3,-99.9,81,46,31,30.38,30.15,3,-54,4,0.00
2013-2-11,33.2,27.5,24.1,32.2,13.1,-99.9,97,82,77,30.01,29.46,1,-132,2,0.01
2013-2-12,44.7,38.0,32.1,34.7,29.5,26.4,98,72,54,29.73,29.45,8,3,14,0.12
2013-2-13,44.3,34.0,24.4,26.7,24.8,21.1,89,70,48,29.72,29.56,3,1,6,0.00
2013-2-14,44.9,35.1,26.9,25.7,23.5,21.4,86,65,40,29.84,29.55,3,1,5,0.00
2013-2-15,52.1,37.1,26.3,34.8,29.3,22.1,94,75,50,29.84,29.74,4,1,8,0.00
2013-2-16,38.6,33.7,27.3,32.3,27.1,17.9,96,78,58,29.80,29.58,2,0,3,0.03
2013-2-17,29.1,21.4,16.6,19.6,10.3,1.5,89,64,44,29.59,29.25,7,4,17,0.00
2013-2-18,31.6,22.8,14.4,4.2,1.5,-2.3,56,41,24,30.00,29.53,6,4,13,0.00
2013-2-19,46.5,34.8,21.2,41.9,23.0,3.9,98,64,42,30.01,29.43,4,1,6,0.17
2013-2-20,39.5,31.9,26.2,38.7,21.0,11.6,98,65,43,29.62,29.39,7,4,15,0.01
2013-2-21,32.9,26.9,23.8,16.6,14.0,10.2,71,58,46,30.05,29.62,5,3,10,0.00
2013-2-22,40.6,31.5,21.3,25.8,20.8,16.3,86,66,43,30.25,30.06,3,1,5,0.00
2013-2-23,38.0,33.0,27.1,31.8,28.6,23.6,96,84,72,30.18,29.78,3,1,4,0.01
2013-2-24,33.9,32.7,30.4,33.2,31.9,29.7,98,97,96,29.78,29.56,1,0,2,0.43
2013-2-25,39.9,33.0,29.3,33.3,31.1,28.6,97,93,75,30.09,29.75,1,0,2,0.34
2013-2-26,42.5,34.2,27.6,36.5,29.6,26.3,98,84,58,30.19,30.02,3,1,7,0.07
2013-2-27,40.6,37.6,34.7,39.5,36.0,30.1,97,94,82,30.02,29.43,6,2,12,1.42
2013-2-28,46.4,37.3,32.5,38.7,34.5,31.7,98,90,72,29.49,29.39,2,0,4,0.01
2013-3-1,40.6,36.7,28.9,35.5,30.5,27.6,97,79,66,29.54,29.39,2,1,4,0.00
2013-3-2,41.7,36.7,30.5,31.1,27.9,25.6,82,70,63,29.53,29.47,3,1,5,0.00
2013-3-3,40.0,34.9,30.8,32.6,28.6,25.3,88,78,71,29.50,29.42,2,1,6,0.00
2013-3-4,35.4,33.3,31.9,27.9,25.8,23.9,82,74,70,29.60,29.48,4,2,8,0.00
2013-3-5,44.9,35.9,29.6,32.5,27.2,23.0,93,72,54,29.93,29.60,3,1,4,0.00
2013-3-6,39.3,35.8,32.5,35.4,33.1,30.7,96,90,78,29.97,29.90,5,2,9,0.14
2013-3-7,33.6,31.9,30.3,31.8,29.7,27.2,95,92,84,29.95,29.86,3,2,5,0.10
2013-3-8,39.2,32.6,29.3,33.1,29.2,24.6,97,88,61,30.02,29.81,1,0,2,0.08
2013-3-9,50.6,35.7,23.4,30.8,24.7,20.1,94,67,36,30.21,30.01,3,1,6,0.60
2013-3-10,46.0,33.0,19.5,32.9,27.6,18.1,97,82,59,30.27,30.16,3,1,4,0.00
2013-3-11,52.7,40.3,33.5,36.4,33.1,31.1,92,77,51,30.18,30.01,4,2,8,0.00
2013-3-12,55.1,51.9,45.1,52.9,50.0,44.3,97,93,83,29.90,29.58,5,3,8,0.41
2013-3-13,51.9,43.5,34.1,51.1,31.3,20.1,97,65,33,29.64,29.56,5,2,12,0.00
2013-3-14,35.8,30.7,22.1,24.4,14.7,8.0,71,51,41,29.69,29.56,6,3,14,0.00
2013-3-15,40.1,28.8,18.8,29.4,13.2,4.4,85,53,27,29.72,29.48,4,3,10,0.00
2013-3-16,39.9,33.1,26.4,26.7,15.5,10.0,75,50,29,29.74,29.52,4,1,7,0.00
2013-3-17,38.3,29.3,19.7,19.3,11.6,4.2,88,51,26,30.17,29.73,5,2,8,0.00
2013-3-18,35.0,22.7,14.7,9.0,4.9,2.0,76,47,30,30.31,30.17,3,1,5,0.00
2013-3-20,36.4,32.4,27.8,24.6,23.2,21.7,83,69,57,29.60,29.58,7,5,12,0.14
2013-3-25,40.7,37.7,36.2,32.2,31.3,29.8,82,77,68,29.43,29.40,3,1,10,0.00
2013-3-26,52.6,41.2,34.6,29.7,25.4,19.6,76,55,29,29.64,29.41,3,1,6,0.00
2013-3-27,54.8,41.4,25.6,33.5,25.9,22.8,92,58,32,29.73,29.59,5,1,9,0.00
2013-3-28,49.2,41.5,35.5,37.0,34.3,29.8,93,77,49,29.87,29.73,2,0,4,0.03
2013-3-29,56.0,43.3,29.0,37.9,32.4,27.5,97,68,37,29.91,29.82,5,1,7,0.02
2013-3-30,57.7,46.4,34.1,33.6,26.7,14.7,88,53,20,29.93,29.85,4,1,7,0.00
2013-4-1,61.4,48.1,34.7,43.0,32.6,10.4,96,57,31,29.64,29.35,8,4,16,0.20
2013-4-2,39.2,33.9,29.1,15.8,13.2,9.0,54,43,29,29.78,29.65,9,4,16,0.00
2013-4-3,46.0,36.4,29.6,16.9,13.4,7.8,54,40,22,30.01,29.77,7,4,15,0.00
2013-4-4,55.7,41.8,27.6,24.9,16.7,10.5,71,39,18,30.15,29.89,5,2,10,0.00
2013-4-5,62.9,46.0,36.5,30.0,26.4,18.6,73,50,19,29.89,29.48,5,2,9,0.00
2013-4-6,47.9,37.1,27.9,24.3,12.6,1.9,66,40,16,30.18,29.74,5,2,12,0.00
2013-4-7,55.9,40.8,23.8,39.8,26.6,17.2,84,60,30,30.19,29.84,8,3,11,0.00
2013-4-8,67.4,52.2,39.2,42.8,38.6,33.6,96,64,29,29.95,29.80,4,1,8,0.00
2013-4-9,71.0,55.6,44.8,51.1,43.9,39.7,95,68,38,29.93,29.72,7,2,11,0.03
2013-4-10,62.9,50.9,45.1,49.2,45.9,41.9,97,84,60,29.89,29.72,3,1,4,0.24
2013-4-11,53.5,46.4,39.6,46.9,37.0,26.0,97,72,44,30.01,29.69,3,0,4,0.09
2013-4-12,40.0,37.4,35.3,37.6,34.9,31.1,97,91,76,30.04,29.67,4,1,8,0.52
2013-4-13,54.0,43.0,34.7,40.7,37.0,33.7,97,81,53,29.80,29.63,3,1,5,0.10
2013-4-14,52.3,45.3,34.1,40.3,33.4,27.6,94,66,39,30.08,29.77,6,2,8,0.01
2013-4-15,58.6,43.3,28.5,38.6,33.0,27.2,96,70,36,30.25,30.08,5,1,8,0.00
2013-4-16,66.7,52.1,35.0,51.2,42.3,33.4,96,72,45,30.26,29.90,8,3,13,0.00
2013-4-17,68.3,58.1,46.7,53.4,36.9,28.0,89,49,24,30.19,29.91,5,2,9,0.00
2013-4-18,62.0,49.6,33.2,44.6,33.9,28.2,92,58,34,30.29,30.00,6,2,10,0.00
2013-4-19,75.4,63.3,51.9,62.8,57.1,44.6,97,81,59,30.01,29.49,7,4,12,0.00
2013-4-20,67.5,53.1,43.4,62.9,40.7,23.4,96,66,37,30.08,29.46,6,3,10,0.49
2013-4-21,55.8,42.7,32.9,30.0,22.8,16.9,87,48,23,30.54,30.08,5,2,6,0.00
2013-4-22,51.3,40.7,28.7,34.3,29.5,22.0,96,68,34,30.62,30.46,6,2,11,0.00
2013-4-23,41.4,39.4,35.7,40.3,36.8,30.4,97,91,79,30.46,30.00,3,1,5,0.04
2013-4-24,75.8,57.1,40.7,52.2,44.4,37.4,97,68,25,29.99,29.63,5,2,10,0.00
2013-4-25,65.6,55.1,40.0,52.3,36.3,24.2,93,54,24,30.13,29.67,5,2,8,0.03
2013-4-26,61.7,47.7,31.7,38.8,33.5,29.6,95,62,35,30.28,30.13,5,1,9,0.00
2013-4-27,65.5,51.6,34.4,40.3,36.0,32.9,97,60,32,30.28,30.14,4,1,9,0.00
2013-4-28,69.4,53.7,35.9,41.9,36.2,31.0,97,57,27,30.20,30.07,5,2,10,0.00
2013-4-29,70.3,56.7,42.1,48.3,37.3,28.1,88,52,28,30.13,30.03,4,1,9,0.00
2013-4-30,69.2,56.8,43.1,37.7,30.0,19.1,78,41,18,30.22,30.11,4,1,7,0.00
2013-5-1,70.3,53.6,33.9,39.2,33.8,29.1,94,54,24,30.32,30.22,4,1,6,0.00
2013-5-2,78.4,53.8,38.6,45.5,39.4,35.8,93,63,23,30.35,30.19,6,1,11,0.00
2013-5-3,61.6,50.6,39.9,45.1,40.8,36.6,90,71,50,30.39,30.24,4,1,11,0.00
2013-5-4,63.1,49.2,35.8,45.7,36.8,20.4,97,68,20,30.24,30.15,5,1,9,0.00
2013-5-5,61.7,47.3,31.0,41.8,36.9,29.5,98,71,44,30.20,30.10,4,1,8,0.00
2013-5-6,73.0,51.3,32.7,49.8,41.9,31.3,97,75,32,30.15,30.00,4,1,7,0.00
2013-5-7,77.8,61.8,40.8,59.1,50.5,39.5,98,70,39,30.03,29.93,4,1,7,0.00
2013-5-8,74.2,61.9,50.2,61.9,57.2,48.8,98,85,64,30.06,29.90,5,1,8,0.19
2013-5-9,68.1,59.6,56.8,61.7,57.9,56.0,98,94,74,29.91,29.74,2,0,3,0.75
2013-5-10,78.7,64.8,53.3,60.7,56.8,52.8,99,78,46,29.82,29.75,3,1,6,0.01
2013-5-11,70.2,63.7,58.2,62.2,59.2,54.9,97,85,73,29.76,29.55,5,2,9,0.15
2013-5-12,71.1,60.4,48.8,60.6,50.8,30.6,97,74,39,29.67,29.42,5,1,7,0.11
2013-5-13,58.9,47.7,35.8,36.3,31.6,27.8,93,57,32,29.89,29.67,6,2,10,0.00
2013-5-14,60.2,48.6,34.1,36.6,32.5,27.8,93,58,31,29.92,29.83,5,1,11,0.00
2013-5-15,65.6,50.7,32.8,51.8,39.2,31.3,97,70,31,29.91,29.53,5,2,10,0.00
2013-5-16,81.0,69.5,47.8,49.5,39.8,31.4,97,41,20,29.67,29.48,7,3,19,0.01
2013-5-17,72.2,59.1,46.4,44.3,41.4,36.3,84,54,29,30.08,29.68,3,1,6,0.00
2013-5-18,75.2,57.2,39.5,49.4,42.5,35.6,97,64,25,30.17,30.07,4,1,7,0.00
2013-5-19,72.8,56.5,45.8,53.8,49.0,44.2,96,79,45,30.21,30.12,4,1,7,0.00
2013-5-20,83.3,73.4,59.4,65.5,62.9,58.8,98,71,54,29.91,29.76,4,1,6,0.03
2013-5-21,81.2,60.8,50.9,67.4,56.7,48.9,98,87,61,29.88,29.73,3,1,9,0.00
2013-5-22,67.4,56.0,49.8,61.5,53.7,48.7,98,92,81,29.94,29.74,3,1,7,0.50
2013-5-23,75.7,63.3,53.3,69.7,60.7,52.5,99,92,79,29.79,29.66,4,1,7,0.24
2013-5-24,72.4,62.5,48.3,67.1,59.9,47.4,99,91,77,29.69,29.51,2,1,7,0.33
2013-5-25,50.7,46.4,40.4,50.0,45.5,38.5,98,97,93,29.69,29.57,2,1,7,0.45
2013-5-26,57.5,48.1,39.2,43.3,39.9,37.4,96,75,51,29.95,29.57,4,2,11,0.07
2013-5-27,74.4,56.1,37.0,46.8,39.9,32.9,98,62,24,30.03,29.92,5,1,8,0.00
2013-5-28,74.2,58.2,39.3,52.2,44.6,38.3,98,67,31,30.09,30.01,3,1,6,0.00
2013-5-29,70.6,62.3,56.1,64.8,59.8,51.2,98,92,80,30.04,29.83,2,0,4,0.40
2013-5-30,90.2,74.7,62.1,69.3,65.4,61.5,99,76,43,29.94,29.85,5,1,7,0.27
2013-5-31,94.7,79.8,61.7,70.6,65.6,60.5,98,66,35,29.94,29.78,4,1,9,0.00
2013-6-1,93.8,80.5,63.8,69.7,65.4,59.5,95,64,33,29.82,29.70,4,1,10,0.00
2013-6-2,90.8,78.8,69.1,70.3,67.2,62.3,89,70,40,29.73,29.56,6,2,10,0.01
2013-6-3,79.0,68.9,59.9,67.8,62.0,45.9,97,80,55,29.71,29.60,4,1,7,0.50
2013-6-4,73.5,60.7,46.1,49.7,46.0,43.4,92,61,37,29.96,29.69,3,1,5,0.00
2013-6-5,77.3,62.2,47.0,55.1,48.1,42.9,97,64,31,30.05,29.94,3,0,6,0.00
2013-6-6,75.6,63.4,51.7,56.4,51.7,48.7,91,67,44,30.05,29.95,3,0,7,0.00
2013-6-7,57.4,55.0,52.8,56.1,53.8,52.3,98,96,87,29.97,29.69,3,1,5,1.05
2013-6-8,78.0,62.5,52.3,65.4,57.7,51.8,99,86,61,29.86,29.50,5,1,8,1.80
2013-6-9,81.2,67.3,53.6,59.9,56.6,52.8,98,73,43,30.02,29.86,4,1,7,0.02
2013-6-10,69.4,61.5,53.1,59.6,56.9,52.2,98,86,66,30.07,29.89,2,0,7,0.32
2013-6-11,62.6,57.6,55.1,58.6,56.2,54.5,98,95,85,29.88,29.44,2,0,5,1.47
2013-6-12,71.9,63.8,56.0,58.5,55.6,53.6,98,76,59,29.68,29.42,3,1,8,0.13
2013-6-13,68.4,56.9,50.3,58.3,54.0,49.4,98,91,64,29.68,29.55,2,0,2,0.47
2013-6-14,77.9,60.7,51.5,60.1,54.7,50.7,99,83,43,29.63,29.52,2,0,4,0.84
2013-6-15,81.0,66.9,53.4,56.0,50.0,43.4,92,60,27,29.79,29.63,3,1,9,0.07
2013-6-16,76.7,65.7,51.4,62.4,55.4,49.7,96,72,42,29.80,29.56,4,1,6,0.00
2013-6-17,84.9,68.1,56.9,66.6,60.7,55.5,98,80,42,29.76,29.63,4,1,7,0.31
2013-6-18,75.9,62.3,56.6,65.0,59.6,56.0,99,92,67,29.81,29.75,2,0,4,0.15
2013-6-19,77.8,64.6,53.7,58.1,53.8,45.3,99,73,33,30.01,29.77,2,0,3,0.11
2013-6-20,80.3,65.5,47.9,59.9,51.8,46.8,99,67,32,30.12,30.00,3,1,8,0.01
2013-6-21,87.2,71.4,56.9,63.6,58.1,53.2,91,67,33,30.10,30.04,3,1,5,0.00
2013-6-22,86.1,72.7,59.2,65.8,61.6,58.0,96,71,43,30.07,29.95,4,1,7,0.00
2013-6-23,91.4,77.5,63.9,73.5,66.4,58.8,91,70,54,30.01,29.83,4,1,7,0.02
2013-6-24,93.9,80.2,69.8,75.2,70.1,66.5,95,74,49,29.87,29.72,4,1,7,0.03
2013-6-25,91.7,79.1,68.2,72.6,68.8,65.9,96,73,46,29.78,29.57,4,1,10,0.00
2013-6-26,85.3,74.1,67.7,73.7,69.6,66.2,95,86,60,29.71,29.57,3,0,6,0.15
2013-6-27,73.3,65.6,60.6,68.0,63.8,59.7,98,94,82,29.73,29.62,2,0,4,0.11
2013-6-28,82.3,69.9,58.1,73.5,66.7,57.5,100,91,71,29.63,29.34,3,1,8,0.11
2013-6-29,84.6,75.7,70.1,71.3,69.0,67.1,96,81,57,29.58,29.37,4,1,9,0.06
2013-6-30,70.8,69.0,67.4,69.3,67.2,65.9,97,94,90,29.66,29.57,1,0,1,0.00
2013-7-1,81.5,74.8,71.6,75.2,72.3,70.6,98,92,77,29.93,29.84,2,0,4,0.23
2013-7-2,83.3,72.4,61.0,75.3,69.3,59.7,98,91,72,30.07,29.92,3,1,9,0.11
2013-7-3,88.8,75.5,60.7,75.1,69.0,59.6,97,82,60,30.07,29.98,4,1,9,0.04
2013-7-4,92.9,82.5,71.7,75.8,73.3,70.5,97,76,54,30.06,29.94,4,1,7,0.03
2013-7-5,89.1,79.2,75.4,75.9,73.6,72.2,90,83,64,30.01,29.97,3,1,7,0.01
2013-7-8,88.5,80.1,67.4,76.1,72.5,66.2,96,78,65,29.91,29.79,3,1,5,0.01
2013-7-9,73.2,70.0,65.6,68.6,66.8,64.7,98,90,84,29.97,29.91,1,0,3,0.01
2013-7-10,85.2,73.2,65.7,76.2,70.3,64.1,98,91,72,29.94,29.64,3,0,4,0.01
2013-7-11,83.2,75.5,70.3,75.1,72.4,68.2,98,91,73,29.79,29.62,2,0,3,0.01
2013-7-12,79.8,72.5,65.6,68.3,61.3,57.1,96,70,47,30.06,29.79,3,1,9,0.01
2013-7-13,80.9,71.5,64.4,71.4,65.6,59.6,96,82,72,30.16,30.06,2,0,3,0.01
2013-7-14,92.3,79.0,68.2,75.2,71.6,67.1,99,80,52,30.15,30.05,2,0,6,0.00
2013-7-15,92.3,76.2,68.5,75.3,71.4,67.4,98,87,52,30.06,29.94,1,0,2,0.22
2013-7-16,96.1,80.9,66.3,73.1,69.6,65.1,97,72,41,30.02,29.96,2,0,4,0.00
2013-7-17,96.0,81.9,68.4,75.6,71.3,67.0,96,73,45,30.04,29.83,2,0,5,0.00
2013-7-18,95.9,82.6,74.5,76.1,72.1,67.6,90,72,42,29.87,29.79,3,0,7,0.00
2013-7-19,97.1,85.6,71.7,78.0,73.9,69.3,93,70,46,29.80,29.56,5,2,12,0.00
2013-7-20,92.3,83.0,73.5,77.5,73.2,63.9,92,73,55,29.66,29.51,4,1,10,0.00
2013-7-21,73.4,70.0,65.9,64.2,63.0,62.1,88,79,72,29.72,29.66,0,0,1,0.00